Weather History for KJST - April, 2013

Change the Weather History Date:

Friday, April 19, 2013

  Actual Average Record
Temperature  
Mean Temperature 54 °F 49 °F  
Max Temperature 68 °F 58 °F 90 °F (1976)
Min Temperature 39 °F 39 °F 23 °F (1983)
Degree Days  
Heating Degree Days 12 17  
Month to date heating degree days 379  
Since 1 July heating degree days 6171  
Cooling Degree Days 0 0  
Month to date cooling degree days 0  
Year to date cooling degree days 0  
Growing Degree Days 4 (Base 50)    
Moisture  
Dew Point 46 °F    
Average Humidity 79    
Maximum Humidity 100    
Minimum Humidity 63    
Precipitation  
Precipitation 0.23 in 0.11 in 0.91 in (1943)
Month to date precipitation 2.39  
Year to date precipitation 10.91  
Sea Level Pressure  
Sea Level Pressure 29.70 in    
Wind  
Wind Speed 18 mph (SW)    
Max Wind Speed 24 mph    
Max Gust Speed 33 mph    
Visibility 9 miles    
Events Rain    
T = Trace of Precipitation, MM = Missing Value Source: NWS Daily Summary

Daily Weather History Graph

Daily Weather History Graph

Search for Another Location

Airport or City:

Trip Planner

Search our weather history database for the weather conditions in past years. The results will help you decide how hot, cold, wet, or windy it might be!

Date:

Astronomy

Apr. 19, 2013 Rise Set
Actual Time 6:30 AM EDT 7:58 PM EDT
Civil Twilight 6:02 AM EDT 8:27 PM EDT
Nautical Twilight 5:28 AM EDT 9:01 PM EDT
Astronomical Twilight 4:51 AM EDT 9:37 PM EDT
Moon 1:40 PM EDT (4/19) 2:46 AM EDT (4/19)
Length of Visible Light 14h 24m
Length of Day
13h 27m
First Quarter, 61% of the Moon is Illuminated
Apr 19
First Quarter
Apr 25
Full
May 2
Last Quarter
May 9
New
May 18
First Quarter

Hourly Weather History & Observations

Time (EDT) Temp. Windchill Dew Point Humidity Pressure Visibility Wind Dir Wind Speed Gust Speed Precip Events Conditions
12:54 AM 61.0 °F - 50.0 °F 67% 29.86 in 10.0 mi South 15.0 mph 25.3 mph N/A   Clear
1:54 AM 61.0 °F - 50.0 °F 67% 29.82 in 10.0 mi South 19.6 mph 29.9 mph N/A   Clear
2:54 AM 60.1 °F - 50.0 °F 69% 29.79 in 10.0 mi South 17.3 mph 29.9 mph N/A   Clear
3:54 AM 60.1 °F - 51.1 °F 72% 29.77 in 10.0 mi South 15.0 mph - N/A   Clear
4:54 AM 59.0 °F - 52.0 °F 78% 29.75 in 10.0 mi SSE 18.4 mph 24.2 mph N/A   Clear
5:54 AM 57.9 °F - 52.0 °F 81% 29.73 in 10.0 mi SSE 16.1 mph 24.2 mph N/A   Clear
6:54 AM 59.0 °F - 53.1 °F 81% 29.72 in 10.0 mi SSE 18.4 mph 26.5 mph N/A   Clear
7:54 AM 60.1 °F - 53.1 °F 78% 29.70 in 10.0 mi SSE 18.4 mph 31.1 mph N/A   Partly Cloudy
8:54 AM 61.0 °F - 53.1 °F 75% 29.68 in 10.0 mi SSE 21.9 mph 28.8 mph N/A   Clear
9:54 AM 62.1 °F - 53.1 °F 72% 29.65 in 10.0 mi South 24.2 mph 31.1 mph N/A   Clear
10:54 AM 64.0 °F - 53.1 °F 67% 29.65 in 10.0 mi SSE 24.2 mph 31.1 mph N/A   Partly Cloudy
11:54 AM 64.9 °F - 53.1 °F 65% 29.63 in 10.0 mi South 20.7 mph 29.9 mph N/A   Overcast
12:54 PM 63.0 °F - 55.9 °F 78% 29.56 in 10.0 mi SSE 20.7 mph 28.8 mph 0.05 in Rain Light Rain
1:54 PM 68.0 °F - 55.9 °F 65% 29.54 in 10.0 mi South 21.9 mph 31.1 mph 0.00 in   Clear
2:54 PM 66.9 °F - 54.0 °F 63% 29.53 in 10.0 mi South 23.0 mph 29.9 mph 0.00 in Rain Light Rain
3:22 PM 60.8 °F - 55.4 °F 82% 29.60 in 2.0 mi West 19.6 mph 26.5 mph 0.07 in Rain Heavy Rain
3:28 PM 55.4 °F - 53.6 °F 94% 29.63 in 2.0 mi West 24.2 mph 33.4 mph 0.08 in Rain Rain
3:36 PM 53.6 °F - 51.8 °F 94% 29.61 in 7.0 mi WNW 16.1 mph 33.4 mph 0.09 in Rain Light Rain
3:54 PM 51.1 °F - 50.0 °F 96% 29.61 in 10.0 mi WNW 21.9 mph 28.8 mph 0.09 in   Overcast
4:05 PM 51.8 °F - 48.2 °F 88% 29.64 in 10.0 mi West 18.4 mph 32.2 mph N/A   Overcast
4:54 PM 46.9 °F - 44.1 °F 90% 29.71 in 7.0 mi West 18.4 mph 31.1 mph 0.01 in Rain Light Rain
5:04 PM 46.4 °F 39.2 °F 44.6 °F 93% 29.70 in 1.8 mi WSW 18.4 mph 25.3 mph 0.05 in Rain Rain
5:13 PM 46.4 °F 39.5 °F 42.8 °F 87% 29.70 in 3.0 mi West 17.3 mph 29.9 mph 0.08 in Rain Light Rain
5:50 PM 46.4 °F 41.1 °F 44.6 °F 93% 29.68 in 10.0 mi WSW 11.5 mph 20.7 mph 0.08 in Rain Light Rain
5:54 PM 45.0 °F 39.3 °F 44.1 °F 97% 29.69 in 10.0 mi West 11.5 mph 20.7 mph 0.08 in Rain Light Rain
6:01 PM 44.6 °F 39.2 °F 44.6 °F 100% 29.69 in 10.0 mi West 10.4 mph 21.9 mph 0.00 in   Overcast
6:30 PM 44.6 °F 36.6 °F 41.0 °F 87% 29.71 in 10.0 mi West 19.6 mph 28.8 mph 0.00 in   Overcast
6:54 PM 43.0 °F 36.0 °F 39.9 °F 89% 29.71 in 10.0 mi West 13.8 mph 29.9 mph 0.00 in   Overcast
7:42 PM 42.8 °F 35.4 °F 37.4 °F 81% 29.72 in 10.0 mi West 15.0 mph 24.2 mph N/A   Overcast
7:54 PM 42.1 °F 34.2 °F 37.0 °F 82% 29.73 in 10.0 mi West 16.1 mph 25.3 mph N/A   Mostly Cloudy
8:54 PM 42.1 °F 34.9 °F 36.0 °F 79% 29.74 in 10.0 mi West 13.8 mph 19.6 mph N/A   Overcast
9:26 PM 41.0 °F 33.9 °F 33.8 °F 76% 29.76 in 10.0 mi West 12.7 mph 20.7 mph N/A   Scattered Clouds
9:54 PM 41.0 °F 34.3 °F 33.1 °F 73% 29.78 in 10.0 mi West 11.5 mph 20.7 mph N/A   Overcast
10:32 PM 41.0 °F 33.9 °F 32.0 °F 70% 29.78 in 10.0 mi West 12.7 mph 21.9 mph N/A   Overcast
10:54 PM 39.9 °F 31.8 °F 30.9 °F 70% 29.79 in 10.0 mi WNW 15.0 mph - N/A   Overcast
11:01 PM 39.2 °F 30.5 °F 30.2 °F 70% 29.79 in 10.0 mi WNW 16.1 mph 24.2 mph N/A   Overcast
11:54 PM 39.0 °F 31.0 °F 28.9 °F 67% 29.81 in 10.0 mi West 13.8 mph 20.7 mph N/A   Overcast